PHMAX EHSE-EHSE

Flight info

Callsign PHMAX
Flight time 0h 28m
Altitude 3000
Route /
Aircraft C172/L-SFG/C

Departure

Time 2026-04-18 18:31
Airport Breda International Airport (EHSE)

Arrival

Time 2026-04-18 19:00
Airport Breda International Airport (EHSE)
Time Latitude Longitude Altitude Speed Heading
2026-04-18 18:25 51.55473 4.54974 33 ft 0 kts 337°
2026-04-18 18:28 51.55475 4.54994 32 ft 0 kts 153°
2026-04-18 18:28 51.55473 4.54995 32 ft 2 kts 152°
2026-04-18 18:29 51.55466 4.55032 33 ft 5 kts 71°
2026-04-18 18:29 51.55510 4.55187 32 ft 24 kts 65°
2026-04-18 18:29 51.55598 4.55512 32 ft 36 kts 66°
2026-04-18 18:29 51.55686 4.55831 33 ft 15 kts 72°
2026-04-18 18:30 51.55650 4.55877 32 ft 9 kts 193°
2026-04-18 18:30 51.55624 4.55790 32 ft 19 kts 249°
2026-04-18 18:30 51.55503 4.55335 38 ft 66 kts 244°
2026-04-18 18:30 51.55307 4.54695 220 ft 70 kts 227°
2026-04-18 18:31 51.55069 4.54022 334 ft 77 kts 249°
2026-04-18 18:31 51.54820 4.53243 505 ft 75 kts 253°
2026-04-18 18:31 51.54622 4.52282 530 ft 98 kts 267°
2026-04-18 18:31 51.54765 4.51212 681 ft 102 kts 295°
2026-04-18 18:32 51.55204 4.50325 802 ft 105 kts 328°
2026-04-18 18:32 51.55940 4.50054 826 ft 114 kts 360°
2026-04-18 18:32 51.56680 4.50102 1107 ft 99 kts 357°
2026-04-18 18:32 51.57293 4.50322 1377 ft 96 kts 49°
2026-04-18 18:33 51.57666 4.51326 1469 ft 106 kts 53°
2026-04-18 18:33 51.58138 4.52329 1466 ft 115 kts 43°
2026-04-18 18:33 51.58747 4.53079 1596 ft 102 kts 19°
2026-04-18 18:33 51.59347 4.53465 1877 ft 67 kts 20°
2026-04-18 18:34 51.59712 4.53799 1746 ft 60 kts 26°
2026-04-18 18:34 51.60058 4.54170 1550 ft 57 kts 29°
2026-04-18 18:34 51.60383 4.54506 1329 ft 56 kts 18°
2026-04-18 18:34 51.60731 4.54781 1113 ft 56 kts 23°
2026-04-18 18:35 51.61172 4.55103 1052 ft 82 kts 19°
2026-04-18 18:35 51.61839 4.55546 881 ft 114 kts 32°
2026-04-18 18:35 51.61618 4.56160 1274 ft 107 kts 154°
2026-04-18 18:35 51.61755 4.56827 1627 ft 58 kts 25°
2026-04-18 18:36 51.62065 4.57184 1241 ft 62 kts 31°
2026-04-18 18:36 51.62461 4.57908 510 ft 94 kts 54°
2026-04-18 18:36 51.62765 4.58644 915 ft 70 kts 50°
2026-04-18 18:36 51.63073 4.59202 1023 ft 67 kts 38°
2026-04-18 18:37 51.63391 4.59723 1038 ft 64 kts 18°
2026-04-18 18:37 51.63629 4.59170 1070 ft 78 kts 337°
2026-04-18 18:37 51.64069 4.59773 999 ft 79 kts 45°
2026-04-18 18:37 51.64499 4.59962 1125 ft 79 kts 315°
2026-04-18 18:38 51.64615 4.58991 1178 ft 104 kts 263°
2026-04-18 18:38 51.64464 4.58058 1348 ft 64 kts 261°
2026-04-18 18:38 51.64349 4.57400 1160 ft 59 kts 265°
2026-04-18 18:38 51.64277 4.56750 860 ft 65 kts 278°
2026-04-18 18:39 51.64274 4.55651 623 ft 98 kts 229°
2026-04-18 18:39 51.64187 4.56061 759 ft 84 kts 319°
2026-04-18 18:39 51.63985 4.56066 803 ft 88 kts 42°
2026-04-18 18:39 51.64381 4.56036 949 ft 80 kts 46°
2026-04-18 18:40 51.64589 4.55987 821 ft 92 kts 227°
2026-04-18 18:40 51.64081 4.55645 837 ft 77 kts 195°
2026-04-18 18:40 51.63514 4.55507 833 ft 80 kts 198°
2026-04-18 18:40 51.63025 4.55419 1144 ft 66 kts 186°
2026-04-18 18:41 51.62578 4.55658 1055 ft 85 kts 125°
2026-04-18 18:41 51.62543 4.56252 847 ft 101 kts 63°
2026-04-18 18:41 51.62072 4.57027 780 ft 118 kts 136°
2026-04-18 18:41 51.61437 4.57929 864 ft 126 kts 146°
2026-04-18 18:42 51.60702 4.58728 955 ft 128 kts 144°
2026-04-18 18:42 51.59955 4.59145 1094 ft 105 kts 203°
2026-04-18 18:42 51.59353 4.58533 1067 ft 102 kts 220°
2026-04-18 18:42 51.58763 4.57883 975 ft 109 kts 213°
2026-04-18 18:43 51.58140 4.57698 1043 ft 101 kts 133°
2026-04-18 18:43 51.58321 4.57715 1056 ft 100 kts 248°
2026-04-18 18:43 51.57680 4.57451 1099 ft 97 kts 188°
2026-04-18 18:44 51.57171 4.56963 1220 ft 88 kts 262°
2026-04-18 18:44 51.57106 4.55889 1308 ft 103 kts 271°
2026-04-18 18:44 51.57060 4.54665 1319 ft 119 kts 268°
2026-04-18 18:44 51.56767 4.53415 1433 ft 122 kts 236°
2026-04-18 18:45 51.55994 4.52871 1483 ft 130 kts 158°
2026-04-18 18:45 51.55897 4.54128 1449 ft 124 kts 68°
2026-04-18 18:45 51.56242 4.55201 1745 ft 105 kts 40°
2026-04-18 18:45 51.56956 4.55443 1739 ft 105 kts 325°
2026-04-18 18:46 51.56665 4.54535 1746 ft 129 kts 185°
2026-04-18 18:46 51.56072 4.55456 1387 ft 144 kts 81°
2026-04-18 18:46 51.56455 4.56671 1401 ft 107 kts 57°
2026-04-18 18:46 51.56797 4.57735 1223 ft 108 kts 57°
2026-04-18 18:47 51.57362 4.58102 1492 ft 94 kts 359°
2026-04-18 18:47 51.58076 4.57824 1414 ft 113 kts 340°
2026-04-18 18:47 51.58824 4.57695 1568 ft 109 kts 10°
2026-04-18 18:47 51.59539 4.58140 1676 ft 110 kts 25°
2026-04-18 18:48 51.60132 4.58941 1764 ft 114 kts 48°
2026-04-18 18:48 51.60485 4.60056 1812 ft 116 kts 70°
2026-04-18 18:48 51.60511 4.61345 1982 ft 117 kts 101°
2026-04-18 18:48 51.60123 4.62556 2008 ft 128 kts 119°
2026-04-18 18:49 51.59869 4.63859 2095 ft 119 kts 72°
2026-04-18 18:49 51.60478 4.64353 2139 ft 112 kts 344°
2026-04-18 18:49 51.61296 4.64178 1972 ft 123 kts
2026-04-18 18:49 51.62082 4.64260 2234 ft 104 kts
2026-04-18 18:50 51.62620 4.64990 2311 ft 116 kts 63°
2026-04-18 18:50 51.62878 4.66209 2417 ft 117 kts 64°
2026-04-18 18:50 51.63178 4.67430 2471 ft 119 kts 66°
2026-04-18 18:50 51.63498 4.68817 2170 ft 135 kts 60°
2026-04-18 18:51 51.63978 4.69943 2370 ft 103 kts
2026-04-18 18:51 51.63806 4.69141 2369 ft 126 kts 216°
2026-04-18 18:51 51.63034 4.68296 2279 ft 132 kts 219°
2026-04-18 18:51 51.62325 4.67529 2475 ft 123 kts 216°
2026-04-18 18:52 51.61570 4.66782 2447 ft 131 kts 213°
2026-04-18 18:52 51.60733 4.66172 2410 ft 137 kts 207°
2026-04-18 18:52 51.59963 4.65671 2498 ft 98 kts 207°
2026-04-18 18:52 51.59365 4.65283 2344 ft 88 kts 207°
2026-04-18 18:53 51.58773 4.64880 2082 ft 92 kts 207°
2026-04-18 18:53 51.58235 4.64495 1988 ft 75 kts 210°
2026-04-18 18:53 51.57787 4.64151 1691 ft 76 kts 216°
2026-04-18 18:53 51.57302 4.63677 1159 ft 108 kts 221°
2026-04-18 18:54 51.56715 4.62807 693 ft 127 kts 221°
2026-04-18 18:54 51.56640 4.62949 708 ft 101 kts 232°
2026-04-18 18:54 51.56595 4.62996 641 ft 86 kts 231°
2026-04-18 18:54 51.56573 4.63165 620 ft 76 kts 272°
2026-04-18 18:55 51.56469 4.63344 611 ft 71 kts 329°
2026-04-18 18:55 51.56174 4.62656 581 ft 100 kts 214°
2026-04-18 18:55 51.55454 4.62394 542 ft 107 kts 188°
2026-04-18 18:55 51.54732 4.62382 585 ft 104 kts 181°
2026-04-18 18:56 51.54100 4.62407 536 ft 82 kts 184°
2026-04-18 18:56 51.53654 4.62075 684 ft 70 kts 205°
2026-04-18 18:56 51.53671 4.62410 467 ft 93 kts 289°
2026-04-18 18:56 51.53419 4.61324 528 ft 109 kts 233°
2026-04-18 18:57 51.52963 4.60353 662 ft 114 kts 252°
2026-04-18 18:57 51.52801 4.59073 702 ft 117 kts 266°
2026-04-18 18:57 51.52747 4.57803 743 ft 113 kts 269°
2026-04-18 18:57 51.52733 4.56566 740 ft 108 kts 294°
2026-04-18 18:58 51.53232 4.55801 702 ft 96 kts 332°
2026-04-18 18:58 51.53840 4.55384 719 ft 93 kts 346°
2026-04-18 18:58 51.54443 4.55756 668 ft 108 kts 50°
2026-04-18 18:58 51.54826 4.56677 565 ft 84 kts 54°
2026-04-18 18:59 51.55157 4.57479 595 ft 85 kts 53°
2026-04-18 18:59 51.55531 4.58118 513 ft 79 kts
2026-04-18 18:59 51.55933 4.57670 406 ft 72 kts 278°
2026-04-18 18:59 51.55885 4.56834 221 ft 74 kts 261°
2026-04-18 19:00 51.55708 4.56129 69 ft 61 kts 255°
2026-04-18 19:00 51.55559 4.55553 30 ft 49 kts 251°
2026-04-18 19:00 51.55450 4.55139 31 ft 32 kts 243°
2026-04-18 19:00 51.55373 4.54874 31 ft 21 kts 244°
2026-04-18 19:01 51.55380 4.54791 32 ft 2 kts
2026-04-18 19:01 51.55411 4.54822 32 ft 10 kts 57°
2026-04-18 19:01 51.55445 4.54846 32 ft 0 kts 342°